Regional Weather Roundup
Issued by NWS

Home | Current Version | Previous Version | Graphics & Text | Print | Product List | Glossary On
Versions: 1 2 3 4 5 6 7 8 9 10 11 12 13 14 15 16 17 18 19 20 21 22 23 24 25 26 27 28 29 30 31 32 33 34 35 36 37 38 39 40 41 42 43 44 45 46 47 48 49 50
000
ASUS43 KIND 290559
RWRIN

WEATHER ROUNDUP FOR INDIANA
NATIONAL WEATHER SERVICE INDIANAPOLIS IN
100 AM EST SAT NOV 29 2014

NOTE: "FAIR" INDICATES FEW OR NO CLOUDS BELOW 12,000 FEET WITH NO
SIGNIFICANT WEATHER AND/OR OBSTRUCTIONS TO VISIBILITY.

* - STATION DOES NOT REPORT WEATHER SUCH AS PRECIPITATION OR FOG.

+ - STATION NOT QUALITY CONTROLLED BY THE NATIONAL WEATHER SERVICE.
    USE DATA WITH CAUTION...ESPECIALLY DEWPOINT AND RELATIVE
    HUMIDITY OBSERVATIONS.

INZ001>003-010>013-019-020-290700-
NORTHWEST INDIANA

CITY           SKY/WX    TMP DP  RH WIND       PRES   REMARKS
VALPARAISO     NOT AVBL

$$

LMZ046-743>745-290700-
SOUTHERN LAKE MICHIGAN

STATION/POSITION TIME  TEMP WIND        PRES
                       AIR  DIR/SP/G
                 (UTC) (F)  (DEG/KT/KT) (MB)
MICHIGAN CITY    0500   33  140/ 15/ 20   N/A

$$

INZ004-005-014>016-021>024-290700-
NORTH CENTRAL INDIANA

CITY           SKY/WX    TMP DP  RH WIND       PRES   REMARKS
GOSHEN         CLOUDY    32  23  69 S13       29.95F WCI  22
6HR MIN TEMP:  28; 6HR MAX TEMP:  33;

PERU/GRISSOM   MOCLDY    32  27  81 S13       29.96F WCI  22
6HR MIN TEMP:  30; 6HR MAX TEMP:  33;

SOUTH BEND     FAIR      33  24  69 S9        29.96F WCI  25
6HR MIN TEMP:  29; 6HR MAX TEMP:  33;


$$

INZ006>009-017-018-025>027-290700-
NORTHEAST INDIANA

CITY           SKY/WX    TMP DP  RH WIND       PRES   REMARKS
ANGOLA *+      PTCLDY    28  21  74 S3        30.00S
FORT WAYNE     CLOUDY    32  22  66 S7        30.01S WCI  26
6HR MIN TEMP:  29; 6HR MAX TEMP:  32;


$$

INZ028-029-035-036-043>045-051>053-290700-
WEST CENTRAL INDIANA

CITY           SKY/WX    TMP DP  RH WIND       PRES   REMARKS
GREENCASTLE +  MOCLDY    30  27  86 S5        29.98F WCI  25
LAFAYETTE      PTCLDY    31  25  78 S5        29.96F WCI  26
6HR MIN TEMP:  30; 6HR MAX TEMP:  33;

TERRE HAUTE    MOCLDY    34  25  69 S10       29.97F WCI  26
6HR MIN TEMP:  33; 6HR MAX TEMP:  37;


$$

INZ030>032-037>040-046>048-054>057-064-065-290700-
CENTRAL INDIANA

CITY           SKY/WX    TMP DP  RH WIND       PRES   REMARKS
INDIANAPOLIS   PTCLDY    31  22  69 SE9       29.98F WCI  23
6HR MIN TEMP:  30; 6HR MAX TEMP:  33;

-EAGLE CREEK   PTCLDY    32  22  66 SE7       29.98F WCI  26
6HR MIN TEMP:  32; 6HR MAX TEMP:  33;

KOKOMO *+      MOCLDY    30  21  69 S13G18    29.97F WCI  20
MT COMFORT *+  MOCLDY    32  16  51 S10       30.00F WCI  24
SHELBYVILLE    MOCLDY    34  23  64 S12       30.01F WCI  25
6HR MIN TEMP:  33; 6HR MAX TEMP:  34;


$$

INZ033-034-041-042-049-050-058-059-290700-
EAST CENTRAL INDIANA

CITY           SKY/WX    TMP DP  RH WIND       PRES   REMARKS
MUNCIE         MOCLDY    33  20  58 S10       30.00F WCI  25
6HR MIN TEMP:  31; 6HR MAX TEMP:  34;


$$

INZ060-061-067>069-081>083-085>088-290700-
SOUTHWEST INDIANA

CITY           SKY/WX    TMP DP  RH WIND       PRES   REMARKS
EVANSVILLE     CLEAR     41  26  55 S9        30.03S
6HR MIN TEMP:  36; 6HR MAX TEMP:  41;

HUNTINGBURG *+ CLEAR     37  25  60 S10       30.04S
6HR MIN TEMP:  36; 6HR MAX TEMP:  37;


$$

INZ062-063-066-070>080-084-089>092-290700-
SOUTH CENTRAL AND SOUTHEAST INDIANA

CITY           SKY/WX    TMP DP  RH WIND       PRES   REMARKS
BLOOMINGTON    MOCLDY    33  24  69 SE8       30.00F WCI  26
6HR MIN TEMP:  32; 6HR MAX TEMP:  35;


$$




USA.gov is the U.S. government's official web portal to all federal, state and local government web resources and services.